Hourly Data Report for October 04, 2016

All times are specified in Local Standard Time (LST). Add 1 hour to adjust for Daylight Saving Time where and when it is observed.

MONCTON INTL A
NEW BRUNSWICK

46°06'44.000" N
64°40'43.000" W
70.70 m
8103201
71705
YQM

Download Data

Hourly Data (October 2016)
Hourly Data Report for October 4, 2016
Temp Definition
°C
Dew Point Temp Definition
°C
Rel Hum Definition
%
Wind Dir Definition
10's deg

Wind Spd Definition
km/h
Visibility Definition
km
Stn Press Definition
kPa
Hmdx Definition


Wind Chill Definition


Weather Definition


TIME
00:00 Legend Double Dagger 0.3 -0.4 95 25 10 24.1 101.70     LegendNANA
01:00 Legend Double Dagger -0.3 -0.9 96 22 10 24.1 101.78   -4 LegendNANA
02:00 Legend Double Dagger -0.9 -1.6 95 22 12 24.1 101.81   -5 Clear
03:00 Legend Double Dagger -0.6 -1.2 96 21 15 24.1 101.86   -5 LegendNANA
04:00 Legend Double Dagger -0.9 -1.5 96 22 15 24.1 101.92   -6 LegendNANA
05:00 Legend Double Dagger -1.3 -1.9 96 22 13 24.1 101.97   -6 Clear
06:00 Legend Double Dagger -1.5 -2.2 95 20 10 24.1 102.02   -5 LegendNANA
07:00 Legend Double Dagger -0.9 -1.6 95 21 9 24.1 102.08   -4 LegendNANA
08:00 Legend Double Dagger 1.6 0.4 92 23 7 24.1 102.13     Clear
09:00 Legend Double Dagger 5.0 2.7 85 24 13 24.1 102.14     LegendNANA
10:00 Legend Double Dagger 8.2 3.3 71 23 11 24.1 102.14     LegendNANA
11:00 Legend Double Dagger 10.8 2.4 56 22 9 24.1 102.13     Clear
12:00 Legend Double Dagger 12.8 1.5 46 24 13 24.1 102.12     LegendNANA
13:00 Legend Double Dagger 13.0 2.0 47 36 2 24.1 102.08     LegendNANA
14:00 Legend Double Dagger 14.0 2.9 47 19 5 24.1 102.02     Clear
15:00 Legend Double Dagger 14.4 2.7 45 21 10 24.1 101.98     LegendNANA
16:00 Legend Double Dagger 14.5 2.2 43 22 16 24.1 101.93     LegendNANA
17:00 Legend Double Dagger 12.7 4.7 58 16 17 24.1 101.97     Clear
18:00 Legend Double Dagger 10.2 4.6 68 16 14 24.1 101.95     LegendNANA
19:00 Legend Double Dagger 8.7 4.2 73 20 12 24.1 101.97     LegendNANA
20:00 Legend Double Dagger 6.9 3.7 80 23 13 24.1 101.96     Clear
21:00 Legend Double Dagger 6.2 2.8 79 23 16 24.1 101.96     LegendNANA
22:00 Legend Double Dagger 5.1 2.8 85 23 8 24.1 101.96     LegendNANA
23:00 Legend Double Dagger 3.8 1.8 87 21 13 24.1 101.95     Clear

Notes on Data Quality.

Legend

  • E = Estimated
  • M = Missing
  • NA = Not Available
  • ‡ = Partner data that is not subject to review by the National Climate Archives
Date modified: